Regional Weather Roundup
Issued by NWS

Home | Current Version | Previous Version | Graphics & Text | Print | Product List | Glossary On
Versions: 1 2 3 4 5 6 7 8 9 10 11 12 13 14 15 16 17 18 19 20 21 22 23 24 25 26 27 28 29 30 31 32 33 34 35 36 37 38 39 40 41 42 43 44 45 46 47 48 49 50
076
ASUS43 KIND 250159
RWRIN

WEATHER ROUNDUP FOR INDIANA
NATIONAL WEATHER SERVICE INDIANAPOLIS IN
1000 PM EDT FRI MAR 24 2017

NOTE: "FAIR" INDICATES FEW OR NO CLOUDS BELOW 12,000 FEET WITH NO
SIGNIFICANT WEATHER AND/OR OBSTRUCTIONS TO VISIBILITY.

* - STATION DOES NOT REPORT WEATHER SUCH AS PRECIPITATION OR FOG.

+ - STATION NOT QUALITY CONTROLLED BY THE NATIONAL WEATHER SERVICE.
    USE DATA WITH CAUTION...ESPECIALLY DEWPOINT AND RELATIVE
    HUMIDITY OBSERVATIONS.

INZ001>003-010>013-019-020-250300-
NORTHWEST INDIANA

CITY           SKY/WX    TMP DP  RH WIND       PRES   REMARKS
GARY /AIRPORT/ CLOUDY    43  37  81 NE6       30.05R
KNOX *+        CLOUDY    64  32  29 SW14G21   30.00R
MONTICELLO +   CLOUDY    65  54  66 S14       30.02S

$$

LMZ046-743>745-250300-
SOUTHERN LAKE MICHIGAN

STATION/POSITION TIME  TEMP    WIND        PRES    WAVE
                       AIR SEA DIR/SP/G            HT
                 (UTC) (F)     (DEG/KT/KT) (MB)    (FT)
BURNS HARBOR     0140   40     340/  6/ 11 1018.6R
MICHIGAN CITY    0130           20/  6/  8   N/A

$$

INZ004-005-014>016-021>024-250300-
NORTH CENTRAL INDIANA

CITY           SKY/WX    TMP DP  RH WIND       PRES   REMARKS
GOSHEN         MOCLDY    64  52  64 S12       30.01R
SOUTH BEND     CLOUDY    65  54  67 W13       30.01R

$$

INZ006>009-017-018-025>027-250300-
NORTHEAST INDIANA

CITY           SKY/WX    TMP DP  RH WIND       PRES   REMARKS
ANGOLA *+      PTCLDY    64  57  77 SW13      30.02S
FORT WAYNE     CLOUDY    64  53  67 SW12      30.06R
KENDALLVILLE + CLOUDY    64  53  66 SW12      30.04R

$$

INZ028-029-035-036-043>045-051>053-250300-
WEST CENTRAL INDIANA

CITY           SKY/WX    TMP DP  RH WIND       PRES   REMARKS
CRAWFORDSVL +  MOCLDY    64  54  70 S12       30.07R
GREENCASTLE +  CLOUDY    66  52  59 S6        30.09S
LAFAYETTE      CLOUDY    66  55  67 S9        30.03R
TERRE HAUTE    MOCLDY    67  53  61 S9        30.07S

$$

INZ030>032-037>040-046>048-054>057-064-065-250300-
CENTRAL INDIANA

CITY           SKY/WX    TMP DP  RH WIND       PRES   REMARKS
COLUMBUS       MOCLDY    64  54  68 SW5       30.11R
INDIANAPOLIS   CLOUDY    67  52  58 SW10      30.08R
-EAGLE CREEK   CLOUDY    68  52  56 S7        30.08R
KOKOMO +       PTCLDY    64  53  67 S13       30.07R
SHELBYVILLE    CLOUDY    66  52  60 S6        30.10R

$$

INZ033-034-041-042-049-050-058-059-250300-
EAST CENTRAL INDIANA

CITY           SKY/WX    TMP DP  RH WIND       PRES   REMARKS
MUNCIE         PTCLDY    67  52  58 SW8       30.08R
RICHMOND +     CLOUDY    63  52  67 SW10      30.12R

$$

INZ060-061-067>069-081>083-085>088-250300-
SOUTHWEST INDIANA

CITY           SKY/WX    TMP DP  RH WIND       PRES   REMARKS
EVANSVILLE     CLOUDY    67  51  56 CALM      30.09R
HUNTINGBURG *+ CLOUDY    67  52  58 SW5       30.11R

$$

INZ062-063-066-070>080-084-089>092-250300-
SOUTH CENTRAL AND SOUTHEAST INDIANA

CITY           SKY/WX    TMP DP  RH WIND       PRES   REMARKS
BLOOMINGTON    CLOUDY    67  52  58 S5        30.11R
MADISON *+     CLOUDY    66  50  55 S7        30.13R
SEYMOUR +      CLOUDY    64  52  63 SW3       30.11R

$$





USA.gov is the U.S. government's official web portal to all federal, state and local government web resources and services.